Time,TemperatureF,DewpointF,PressureIn,WindDirection,WindDirectionDegrees,WindSpeedMPH,WindSpeedGustMPH,Humidity,HourlyPrecipIn,Conditions,Clouds,dailyrainin,SoftwareType,DateUTC
2013-03-19 00:00:00,25.7,18.2,29.94,NE,36,4.0,4.0,73,0.00,,,0.00,Wunderground v.1.13,2013-03-19 04:00:00,
2013-03-19 00:30:00,25.1,18.9,29.92,NNE,29,4.0,4.0,77,0.00,,,0.00,Wunderground v.1.13,2013-03-19 04:30:00,
2013-03-19 01:00:00,24.5,19.8,29.90,NE,35,5.0,6.0,82,0.00,,,0.00,Wunderground v.1.13,2013-03-19 05:00:00,
2013-03-19 01:30:00,24.4,21.1,29.87,NE,38,3.0,3.0,87,0.00,,,0.01,Wunderground v.1.13,2013-03-19 05:30:00,
2013-03-19 02:00:00,25.0,22.2,29.86,NE,42,5.0,12.0,89,0.00,,,0.00,Wunderground v.1.13,2013-03-19 06:00:00,
2013-03-19 02:30:00,25.6,23.1,29.83,NE,44,2.0,2.0,90,0.05,,,0.02,Wunderground v.1.13,2013-03-19 06:30:00,
2013-03-19 03:00:00,26.4,24.1,29.81,NE,40,1.0,1.0,91,0.04,,,0.04,Wunderground v.1.13,2013-03-19 07:00:00,
2013-03-19 03:30:00,28.7,26.9,29.74,NE,45,1.0,6.0,93,0.01,,,0.15,Wunderground v.1.13,2013-03-19 07:30:00,
2013-03-19 04:30:00,29.0,27.2,29.73,NE,45,1.0,6.0,93,0.01,,,0.15,Wunderground v.1.13,2013-03-19 08:30:00,
2013-03-19 05:00:00,29.0,27.2,29.73,NE,45,1.0,5.0,93,0.01,,,0.15,Wunderground v.1.13,2013-03-19 09:00:00,
2013-03-19 05:30:00,29.1,27.3,29.73,ENE,68,1.0,4.0,93,0.01,,,0.15,Wunderground v.1.13,2013-03-19 09:30:00,
2013-03-19 06:00:00,29.3,27.5,29.73,ENE,68,1.0,3.0,93,0.01,,,0.15,Wunderground v.1.13,2013-03-19 10:00:00,
2013-03-19 06:30:00,29.5,28.0,29.72,ENE,68,1.0,4.0,94,0.03,,,0.15,Wunderground v.1.13,2013-03-19 10:30:00,
2013-03-19 07:00:00,30.1,28.6,29.72,ENE,68,0.0,2.0,94,0.03,,,0.15,Wunderground v.1.13,2013-03-19 11:00:00,
2013-03-19 09:00:00,30.4,28.9,29.72,ENE,59,0.0,2.0,94,0.00,,,0.15,Wunderground v.1.13,2013-03-19 13:00:00,
2013-03-19 09:30:00,30.7,29.2,29.72,ENE,59,0.0,2.0,94,0.00,,,0.15,Wunderground v.1.13,2013-03-19 13:30:00,
2013-03-19 10:00:00,31.0,29.5,29.72,ENE,59,1.0,2.0,94,0.00,,,0.16,Wunderground v.1.13,2013-03-19 14:00:00,
2013-03-19 10:30:00,31.6,30.1,29.71,ENE,59,1.0,3.0,94,0.00,,,0.16,Wunderground v.1.13,2013-03-19 14:30:00,
2013-03-19 11:00:00,32.2,30.7,29.71,ENE,59,1.0,2.0,94,0.00,,,0.16,Wunderground v.1.13,2013-03-19 15:00:00,
2013-03-19 11:30:00,32.7,30.9,29.71,ENE,59,0.0,2.0,93,0.00,,,0.16,Wunderground v.1.13,2013-03-19 15:30:00,
2013-03-19 12:00:00,32.9,31.1,29.70,NE,34,2.0,2.0,93,0.00,,,0.16,Wunderground v.1.13,2013-03-19 16:00:00,
2013-03-19 12:30:00,33.5,31.4,29.69,ENE,59,1.0,1.0,92,0.00,,,0.16,Wunderground v.1.13,2013-03-19 16:30:00,
2013-03-19 13:00:00,34.1,31.7,29.68,East,86,1.0,1.0,91,0.00,,,0.16,Wunderground v.1.13,2013-03-19 17:00:00,
2013-03-19 13:30:00,34.6,31.7,29.66,East,81,1.0,1.0,89,0.00,,,0.16,Wunderground v.1.13,2013-03-19 17:30:00,
2013-03-19 14:00:00,34.3,31.4,29.66,ENE,60,1.0,2.0,89,0.00,,,0.16,Wunderground v.1.13,2013-03-19 18:00:00,
2013-03-19 14:30:00,34.4,31.5,29.64,ENE,59,2.0,2.0,89,0.00,,,0.16,Wunderground v.1.13,2013-03-19 18:30:00,
2013-03-19 15:00:00,34.9,32.0,29.63,NE,53,1.0,1.0,89,0.00,,,0.16,Wunderground v.1.13,2013-03-19 19:00:00,
2013-03-19 15:30:00,35.6,32.7,29.63,NE,53,0.0,2.0,89,0.00,,,0.16,Wunderground v.1.13,2013-03-19 19:30:00,
2013-03-19 16:00:00,35.3,32.4,29.63,East,88,1.0,1.0,89,0.00,,,0.16,Wunderground v.1.13,2013-03-19 20:00:00,
2013-03-19 16:30:00,36.2,33.0,29.63,East,88,0.0,2.0,88,0.00,,,0.16,Wunderground v.1.13,2013-03-19 20:30:00,
2013-03-19 17:00:00,35.8,32.9,29.63,East,88,0.0,2.0,89,0.00,,,0.16,Wunderground v.1.13,2013-03-19 21:00:00,
2013-03-19 17:30:00,35.6,33.0,29.62,East,94,0.0,2.0,90,0.00,,,0.16,Wunderground v.1.13,2013-03-19 21:30:00,
2013-03-19 18:00:00,35.9,33.5,29.63,East,94,0.0,2.0,91,0.00,,,0.17,Wunderground v.1.13,2013-03-19 22:00:00,
2013-03-19 18:30:00,35.6,33.5,29.63,East,94,0.0,2.0,92,0.00,,,0.17,Wunderground v.1.13,2013-03-19 22:30:00,
2013-03-19 19:00:00,32.7,30.6,29.63,West,261,6.0,7.0,92,0.05,,,0.19,Wunderground v.1.13,2013-03-19 23:00:00,
2013-03-19 19:30:00,31.9,30.1,29.66,West,276,1.0,1.0,93,0.04,,,0.21,Wunderground v.1.13,2013-03-19 23:30:00,
2013-03-19 20:00:00,31.9,30.1,29.66,West,276,0.0,2.0,93,0.00,,,0.21,Wunderground v.1.13,2013-03-20 00:00:00,
2013-03-19 20:30:00,31.6,29.5,29.67,West,273,1.0,2.0,92,0.00,,,0.21,Wunderground v.1.13,2013-03-20 00:30:00,
2013-03-19 21:00:00,31.5,29.2,29.68,SSW,200,3.0,4.0,91,0.00,,,0.21,Wunderground v.1.13,2013-03-20 01:00:00,
2013-03-19 21:30:00,31.5,28.6,29.68,SSW,209,3.0,3.0,89,0.00,,,0.21,Wunderground v.1.13,2013-03-20 01:30:00,
2013-03-19 22:00:00,30.7,25.6,29.68,SW,231,5.0,6.0,81,0.00,,,0.21,Wunderground v.1.13,2013-03-20 02:00:00,
2013-03-19 22:30:00,30.4,25.6,29.68,SW,231,3.0,4.0,82,0.00,,,0.21,Wunderground v.1.13,2013-03-20 02:30:00,
2013-03-19 23:00:00,29.8,25.6,29.68,SW,220,3.0,6.0,84,0.00,,,0.21,Wunderground v.1.13,2013-03-20 03:00:00,
2013-03-19 23:30:00,29.5,25.3,29.68,WSW,238,3.0,4.0,84,0.00,,,0.21,Wunderground v.1.13,2013-03-20 03:30:00,